Weather History for KFMN - April, 2014

Change the Weather History Date:

Wednesday, April 2, 2014

  Actual Average Record
Temperature  
Mean Temperature 44 °F -  
Max Temperature 54 °F 59 °F 80 °F (2011)
Min Temperature 35 °F 31 °F 16 °F (1979)
Degree Days  
Heating Degree Days 20    
Moisture  
Dew Point 23 °F    
Average Humidity 44    
Maximum Humidity 82    
Minimum Humidity 13    
Precipitation  
Precipitation 0.01 in - - ()
Sea Level Pressure  
Sea Level Pressure 29.72 in    
Wind  
Wind Speed 8 mph (WNW)    
Max Wind Speed 22 mph    
Max Gust Speed 32 mph    
Visibility 10 miles    
Events Rain    
Averages and records for this station are not official NWS values.
T = Trace of Precipitation, MM = Missing Value Source: NWS Daily Summary

Daily Weather History Graph

Daily Weather History Graph

Search for Another Location

Airport or City:

Trip Planner

Search our weather history database for the weather conditions in past years. The results will help you decide how hot, cold, wet, or windy it might be!

Date:

Astronomy

Apr. 02, 2014 Rise Set
Actual Time 6:57 AM MDT 7:36 PM MDT
Civil Twilight 6:31 AM MDT 8:02 PM MDT
Nautical Twilight 6:00 AM MDT 8:33 PM MDT
Astronomical Twilight 5:28 AM MDT 9:04 PM MDT
Moon 8:48 AM MDT (4/2) 10:57 PM MDT (4/2)
Length of Visible Light 13h 31m
Length of Day
12h 38m
Waxing Crescent, 10% of the Moon is Illuminated
Apr 2
Waxing Crescent
Apr 7
First Quarter
Apr 15
Full
Apr 22
Last Quarter
Apr 29
New

Hourly Weather History & Observations

Time (MDT) Temp. Windchill Dew Point Humidity Pressure Visibility Wind Dir Wind Speed Gust Speed Precip Events Conditions
12:53 AM 45.0 °F 40.1 °F 6.1 °F 20% 29.70 in 10.0 mi WSW 9.2 mph - N/A   Scattered Clouds
1:53 AM 45.0 °F 41.2 °F 8.1 °F 22% 29.70 in 10.0 mi Variable 6.9 mph - N/A   Mostly Cloudy
2:53 AM 44.1 °F 42.5 °F 10.0 °F 25% 29.69 in 10.0 mi Variable 3.5 mph - N/A   Scattered Clouds
3:53 AM 42.1 °F - 10.0 °F 27% 29.68 in 10.0 mi Calm Calm - N/A   Clear
4:53 AM 37.9 °F 34.4 °F 12.0 °F 35% 29.69 in 10.0 mi NNE 4.6 mph - N/A   Mostly Cloudy
7:53 AM 44.1 °F 42.5 °F 19.0 °F 37% 29.72 in 10.0 mi SSE 3.5 mph - N/A   Overcast
8:53 AM 46.0 °F 42.5 °F 19.9 °F 35% 29.72 in 10.0 mi South 6.9 mph - N/A   Overcast
9:53 AM 48.0 °F - 21.9 °F 36% 29.71 in 10.0 mi SW 11.5 mph 20.7 mph N/A   Overcast
10:53 AM 48.0 °F - 23.0 °F 37% 29.73 in 10.0 mi West 9.2 mph 18.4 mph N/A   Mostly Cloudy
11:53 AM 50.0 °F - 25.0 °F 38% 29.71 in 10.0 mi West 9.2 mph - N/A   Mostly Cloudy
12:53 PM 53.1 °F - 26.1 °F 35% 29.70 in 10.0 mi West 15.0 mph - N/A   Mostly Cloudy
1:53 PM 50.0 °F - 28.9 °F 44% 29.70 in 10.0 mi WNW 18.4 mph 24.2 mph N/A   Scattered Clouds
2:53 PM 50.0 °F - 28.0 °F 43% 29.68 in 10.0 mi NW 15.0 mph - N/A   Mostly Cloudy
4:53 PM 48.0 °F - 27.0 °F 44% 29.70 in 10.0 mi West 17.3 mph 27.6 mph N/A   Overcast
5:53 PM 48.0 °F - 26.1 °F 42% 29.68 in 10.0 mi West 6.9 mph - 0.00 in   Mostly Cloudy
6:53 PM 45.0 °F 36.6 °F 24.1 °F 44% 29.70 in 10.0 mi West 21.9 mph 32.2 mph N/A   Overcast
7:32 PM 41.0 °F 35.8 °F 30.0 °F 65% 29.75 in 10.0 mi North 8.1 mph - 0.00 in Rain Light Rain
7:53 PM 39.9 °F 33.9 °F 30.0 °F 68% 29.72 in 10.0 mi North 9.2 mph - 0.01 in Rain Light Rain
8:03 PM 39.9 °F 37.8 °F 30.0 °F 68% 29.75 in 10.0 mi NNW 3.5 mph - 0.00 in Rain Light Rain
8:53 PM 39.9 °F - 30.9 °F 70% 29.75 in 10.0 mi Calm Calm - 0.00 in   Overcast
9:53 PM 39.0 °F 31.4 °F 28.9 °F 67% 29.78 in 10.0 mi WNW 12.7 mph - N/A   Overcast
10:53 PM 35.1 °F 27.9 °F 30.0 °F 82% 29.79 in 10.0 mi West 9.2 mph - 0.00 in   Mostly Cloudy
11:53 PM 35.1 °F 28.6 °F 30.0 °F 82% 29.79 in 10.0 mi West 8.1 mph - N/A   Overcast